Weather in Folkestone

United Kingdom     51°05′09″N   1°10′41″E
temp.,
°C
wind,
m/s
gust,
m/s
humid.,
%
clouds,
%
prec.,
mm/h
press.,
hPa
HPBL,
m
10 may, mon
mon1001:00+11sw6898100 0.8 997132
04:00+11sw6994100 1.4 998187
07:00+11sw101590100 1.9 1000438
10:00+11ssw11168816 0.1 1002651
13:00+11sw11168424 0.2 1004529
16:00+11ssw712820 0.0 1006306
19:00+11ssw46825 0.0 100678
22:00+11s3484100 0.0 100741
11 may, tue
tue1101:00+10sw118585 0.0 100811
04:00+10se458874 0.0 100855
07:00+10s568866 0.0 1008134
10:00+10s448686 0.0 1008121
13:00+11sw5683100 0.0 1009178
16:00+10wsw4691100 0.2 1009220
19:00+11ssw5782100 0.2 1009128
22:00+11sw5885100 0.0 1011160
12 may, wed
wed1201:00+10sw71188100 0.0 1011426
04:00+10sw7108894 0.0 1011486
07:00+10sw79881 0.0 1012457
10:00+10sw78870 0.0 1012509
13:00+10sw67865 0.0 1012425
16:00+10sw67845 0.0 1012359
19:00+10sw4583100 0.0 1012163
22:00+10wsw338196 0.0 101342
13 may, thu
thu1301:00+10wnw118213 0.0 101218
04:00+9nnw12785 0.0 101138
07:00+9ne33755 0.0 101189
10:00+10ene447647 0.0 1011220
13:00+10ene457577 0.0 1011144
16:00+11ene557694 0.0 1010174
19:00+11ene2375100 0.1 101082
22:00+10sw3383100 0.2 101184
14 may, fri
fri1401:00+9nnw3384100 1.9 1010122
04:00+9n458199 0.8 1010175
07:00+9n2283100 0.9 1010117
10:00+10ne2279100 0.0 101186
13:00+10e2282100 0.2 1012139
16:00+10e11787 0.1 101264
19:00+11ene23821 0.1 1012100
22:00+10ne44887 0.0 1013119